ARIANE 44LP DEB, 25543

Orbit data source: Space-Track

ARIANE 44LP DEB, 25543 is space debris in HEO originally from a launch on Sun, 11 Dec 1988 UTC launched from the French Guiana (FRGUI). Debris objects in space refer to the collection of defunct objects orbiting the Earth. Examples of debris include non-operational satellites, rocket bodies, and fragments generated from explosions, collisions, or faulty payload assembly.

Loading next visibility...
Identifier
25543, 1988-109K
Orbit
HEO
Country
Flag of FRFR
Related business
Manufacturer
Unknown
Mission
Spacecraft
Bus & Motor
Unknown
Mass
Unknown
Launch date (UTC)
1988-12-11 (37 years ago)
Launch vehicle
Unknown
Launch site
French Guiana (FRGUI)
Object type
Payload
Rocket body
Debris
Shape & HBR
Unknown shape, 2.8 m
Radar Cross Section
Large (>1 m²)

Expand to show TLE details & history
Last TLE update: 15 hours ago

TLE from 15 hours ago
0 ARIANE 44LP DEB
1 25543U 88109K   25310.57722589  .00001287  00000-0  50056-2 0  9997
2 25543   7.2141 315.2726 7185645 259.9972  19.1282  2.30608321231544
Epoch: 2025-11-06T13:51Z
TLE epoch observation values (Epoch: 2025-11-06T13:51:12.316Z)
Latitude
-0.00019°
Longitude
61.17556°
Altitude
6,899.684 km
Speed
6.6 km/s
True Right ascension
21h 00m 02s
True Declination
0° 00' 01"
Sunlit
Object was in daylight at epoch
Visualization orbit readout
Latitude
Unknown
Longitude
Unknown
Altitude
Unknown
Speed
Unknown
Apparent Right ascension
Unknown
Apparent Declination
Unknown
Sunlit
N/A
Visualization observer readout
Local Sidereal Time
01:04:32
Azimuth
Unknown
Elevation
Unknown
Doppler factor
Unknown
Orbital elements
Apogee altitude
35,220.532 km
Perigee altitude
434.143 km
Semi-major axis
24,205.474 km
Eccentricity
0.71856
Inclination
7.2141°
RAAN
315.2726°
Arg. of periapsis
259.9972°
True anomaly
99.66208°
Mean anomaly
19.1282°
Eccentric anomaly
51.22564°
Mean motion
0.57633 °/min
Orbital period
624.64 mins
BSTAR
0.0050056
Loading maneuver chart data...
Computing Atmospheric mass density...
Loading historical data...
Loading historical data...
Loading historical data...
Loading historical data...
Loading historical data...
Loading historical data...
Loading historical data...

Documentation

Showing up to 5 results
|